When you browse on this site, cookies collect data to enhance your experience and personalize the content and advertising you see.
Visit our Privacy Policy to learn more. By continuing to use the site, you agree to this use of cookies and data.
  • In Sweden
  • List of Countries
  • For 7 days
  • Water Temperature
  • Satellite Maps
  • Weather Map
  • Weather Widgets
  • user-avatar
    Login

    Hourly Weather Himino

    Today, 20 March, Wednesday

    Time Temperature Precipitation Wind Pressure Humidity
    00:00 0°C° 0 mm 3 mps 750 mmHg 86%
    01:00 -1°C° 0 mm 3 mps 750 mmHg 88%
    02:00 -1°C° 0 mm 3 mps 750 mmHg 90%
    03:00 -1°C° 0 mm 3 mps 751 mmHg 89%
    04:00 -1°C° 0 mm 3 mps 751 mmHg 89%
    05:00 -1°C° 0 mm 3 mps 751 mmHg 88%
    06:00 -1°C° 0 mm 3 mps 752 mmHg 85%
    07:00 0°C° 0 mm 3 mps 752 mmHg 83%
    08:00 -1°C° 0 mm 4 mps 753 mmHg 80%
    09:00 0°C° 0 mm 3 mps 753 mmHg 76%
    10:00 +1°C° 0 mm 3 mps 753 mmHg 72%
    11:00 +1°C° 0 mm 3 mps 754 mmHg 68%
    12:00 +1°C° 0 mm 3 mps 754 mmHg 67%
    13:00 +1°C° 0 mm 3 mps 754 mmHg 67%
    14:00 +2°C° 0 mm 3 mps 754 mmHg 66%
    15:00 +1°C° 0 mm 3 mps 754 mmHg 67%
    16:00 +1°C° 0 mm 3 mps 754 mmHg 68%
    17:00 +1°C° 0 mm 3 mps 754 mmHg 69%
    18:00 +1°C° 0 mm 3 mps 753 mmHg 71%
    19:00 +1°C° 0 mm 3 mps 753 mmHg 73%
    20:00 +1°C° 0 mm 3 mps 753 mmHg 75%
    21:00 +1°C° 0.1 mm 3 mps 752 mmHg 75%
    22:00 0°C° 0.1 mm 4 mps 751 mmHg 75%
    23:00 0°C° 0.1 mm 4 mps 751 mmHg 76%

    Tomorrow, 21 March, Thursday

    Time Temperature Precipitation Wind Pressure Humidity
    00:00 0°C° 0.4 mm 4 mps 750 mmHg 78%
    01:00 0°C° 0.4 mm 5 mps 750 mmHg 80%
    02:00 0°C° 0.4 mm 5 mps 749 mmHg 82%
    03:00 0°C° 0 mm 5 mps 750 mmHg 84%
    04:00 0°C° 0 mm 4 mps 750 mmHg 85%
    05:00 0°C° 0 mm 4 mps 750 mmHg 87%
    06:00 0°C° 0 mm 4 mps 750 mmHg 85%
    07:00 0°C° 0 mm 4 mps 751 mmHg 84%
    08:00 0°C° 0 mm 4 mps 751 mmHg 83%
    09:00 +3°C° 0 mm 4 mps 752 mmHg 78%
    10:00 +4°C° 0 mm 4 mps 752 mmHg 72%
    11:00 +5°C° 0 mm 4 mps 752 mmHg 67%
    12:00 +6°C° 0 mm 4 mps 752 mmHg 63%
    13:00 +6°C° 0 mm 5 mps 752 mmHg 59%
    14:00 +7°C° 0 mm 5 mps 752 mmHg 55%
    15:00 +7°C° 0 mm 4 mps 752 mmHg 59%
    16:00 +7°C° 0 mm 3 mps 752 mmHg 62%
    17:00 +7°C° 0 mm 2 mps 752 mmHg 66%
    18:00 +6°C° 0 mm 2 mps 751 mmHg 70%
    19:00 +5°C° 0 mm 2 mps 751 mmHg 75%
    20:00 +4°C° 0 mm 2 mps 751 mmHg 79%
    21:00 +4°C° 0.3 mm 2 mps 751 mmHg 82%
    22:00 +4°C° 0.3 mm 2 mps 750 mmHg 85%
    23:00 +4°C° 0.3 mm 2 mps 750 mmHg 87%

    Day after tomorrow, 22 March, Friday

    Time Temperature Precipitation Wind Pressure Humidity
    00:00 +3°C° 0.1 mm 3 mps 749 mmHg 89%
    01:00 +4°C° 0.1 mm 3 mps 749 mmHg 91%
    02:00 +4°C° 0.1 mm 3 mps 749 mmHg 93%
    03:00 +4°C° 0 mm 3 mps 749 mmHg 93%
    04:00 +5°C° 0 mm 3 mps 749 mmHg 93%
    05:00 +5°C° 0 mm 4 mps 748 mmHg 92%
    06:00 +5°C° 0 mm 4 mps 749 mmHg 88%
    07:00 +5°C° 0 mm 4 mps 749 mmHg 84%
    08:00 +5°C° 0 mm 5 mps 750 mmHg 80%
    09:00 +5°C° 0 mm 5 mps 750 mmHg 70%
    10:00 +6°C° 0 mm 5 mps 750 mmHg 60%
    11:00 +5°C° 0 mm 6 mps 750 mmHg 51%
    12:00 +5°C° 0 mm 6 mps 750 mmHg 48%
    13:00 +5°C° 0 mm 6 mps 750 mmHg 45%
    14:00 +5°C° 0 mm 6 mps 750 mmHg 43%
    15:00 +5°C° 0 mm 6 mps 750 mmHg 44%
    16:00 +5°C° 0 mm 5 mps 751 mmHg 45%
    17:00 +3°C° 0 mm 5 mps 751 mmHg 47%
    18:00 +3°C° 0 mm 4 mps 752 mmHg 52%
    19:00 +2°C° 0 mm 3 mps 752 mmHg 58%
    20:00 +1°C° 0 mm 3 mps 753 mmHg 64%
    21:00 +1°C° 0 mm 2 mps 753 mmHg 69%
    22:00 +1°C° 0 mm 2 mps 753 mmHg 73%
    23:00 -1°C° 0 mm 2 mps 753 mmHg 78%

    23 March, Saturday

    Time Temperature Precipitation Wind Pressure Humidity
    00:00 +1°C° 0 mm 1 mps 753 mmHg 79%
    01:00 0°C° 0 mm 1 mps 753 mmHg 81%
    02:00 0°C° 0 mm 1 mps 754 mmHg 82%
    03:00 0°C° 0 mm 1 mps 753 mmHg 81%
    04:00 0°C° 0 mm 1 mps 753 mmHg 80%
    05:00 0°C° 0 mm 1 mps 753 mmHg 79%
    06:00 +1°C° 0 mm 1 mps 753 mmHg 74%
    07:00 +1°C° 0 mm 2 mps 753 mmHg 70%
    08:00 +2°C° 0 mm 2 mps 753 mmHg 65%
    09:00 +3°C° 0 mm 2 mps 752 mmHg 66%
    10:00 +3°C° 0 mm 3 mps 752 mmHg 66%
    11:00 +4°C° 0 mm 3 mps 751 mmHg 67%
    12:00 +4°C° 0 mm 3 mps 751 mmHg 73%
    13:00 +5°C° 0 mm 3 mps 751 mmHg 79%
    14:00 +5°C° 0 mm 4 mps 750 mmHg 85%
    15:00 +5°C° 0 mm 3 mps 750 mmHg 87%
    16:00 +5°C° 0 mm 3 mps 750 mmHg 89%
    17:00 +5°C° 0 mm 3 mps 749 mmHg 91%
    18:00 +5°C° 0.1 mm 3 mps 749 mmHg 92%
    19:00 +5°C° 0.1 mm 3 mps 749 mmHg 93%
    20:00 +5°C° 0.1 mm 3 mps 749 mmHg 94%
    21:00 +5°C° 0 mm 4 mps 749 mmHg 92%
    22:00 +5°C° 0 mm 4 mps 749 mmHg 91%
    23:00 +5°C° 0 mm 4 mps 749 mmHg 89%

    24 March, Sunday

    Time Temperature Precipitation Wind Pressure Humidity
    00:00 +5°C° 0 mm 4 mps 750 mmHg 86%
    01:00 +4°C° 0 mm 4 mps 751 mmHg 84%
    02:00 +3°C° 0 mm 4 mps 751 mmHg 81%
    03:00 +2°C° 0 mm 3 mps 752 mmHg 81%
    04:00 0°C° 0 mm 3 mps 752 mmHg 81%
    05:00 -1°C° 0 mm 2 mps 752 mmHg 82%
    06:00 +1°C° 0 mm 2 mps 753 mmHg 75%
    07:00 0°C° 0 mm 3 mps 753 mmHg 69%
    08:00 +1°C° 0 mm 3 mps 754 mmHg 63%
    09:00 +2°C° 0 mm 3 mps 754 mmHg 58%
    10:00 +4°C° 0 mm 2 mps 754 mmHg 53%
    11:00 +5°C° 0 mm 2 mps 754 mmHg 48%
    12:00 +6°C° 0 mm 2 mps 753 mmHg 46%
    13:00 +6°C° 0 mm 2 mps 753 mmHg 44%
    14:00 +8°C° 0 mm 1 mps 753 mmHg 42%
    15:00 +7°C° 0 mm 1 mps 752 mmHg 44%
    16:00 +7°C° 0 mm 1 mps 752 mmHg 46%
    17:00 +6°C° 0 mm 0 mps 751 mmHg 49%
    18:00 +6°C° 0 mm 1 mps 751 mmHg 54%
    19:00 +5°C° 0 mm 1 mps 750 mmHg 59%
    20:00 +2°C° 0 mm 2 mps 750 mmHg 64%
    21:00 +2°C° 0 mm 2 mps 749 mmHg 64%
    22:00 +1°C° 0 mm 3 mps 748 mmHg 64%
    23:00 +1°C° 0 mm 3 mps 747 mmHg 65%

    25 March, Monday

    Time Temperature Precipitation Wind Pressure Humidity
    00:00 +1°C° 0.1 mm 3 mps 746 mmHg 65%
    01:00 +1°C° 0.1 mm 3 mps 745 mmHg 65%
    02:00 0°C° 0.1 mm 4 mps 744 mmHg 66%
    03:00 0°C° 0.7 mm 4 mps 743 mmHg 71%
    04:00 0°C° 0.7 mm 5 mps 742 mmHg 77%
    05:00 -1°C° 0.7 mm 5 mps 740 mmHg 82%
    06:00 -1°C° 0.2 mm 5 mps 739 mmHg 83%
    07:00 0°C° 0.2 mm 5 mps 738 mmHg 85%
    08:00 0°C° 0.2 mm 4 mps 737 mmHg 86%
    09:00 0°C° 0.1 mm 4 mps 737 mmHg 86%
    10:00 +1°C° 0.1 mm 4 mps 736 mmHg 87%
    11:00 +2°C° 0.1 mm 3 mps 735 mmHg 88%
    12:00 +3°C° 0 mm 4 mps 735 mmHg 80%
    13:00 +3°C° 0 mm 4 mps 734 mmHg 72%
    14:00 +3°C° 0 mm 5 mps 733 mmHg 65%
    15:00 +3°C° 0.2 mm 5 mps 733 mmHg 64%
    16:00 +2°C° 0.2 mm 5 mps 733 mmHg 64%
    17:00 +2°C° 0.2 mm 5 mps 732 mmHg 64%
    18:00 +1°C° 0 mm 5 mps 732 mmHg 68%
    19:00 0°C° 0 mm 5 mps 732 mmHg 72%
    20:00 -1°C° 0 mm 5 mps 732 mmHg 76%
    21:00 -2°C° 0 mm 5 mps 732 mmHg 77%
    22:00 -2°C° 0 mm 5 mps 732 mmHg 77%
    23:00 -3°C° 0 mm 4 mps 731 mmHg 78%
    Show more